This is the latest recevied weather packets stored in our database for station/object CE7LGA-10. If no packets are shown the sender has not sent any weather packets the latest 10 day(s).
| Time | Temp. | Humidity | Pressure | Rain* | Wind** | Luminosity | Snow |
|---|---|---|---|---|---|---|---|
| 1787560702 | 12.22° C | 61% | 1003.8 hPa | - | - | - | - |
| 1787559802 | 12.22° C | 61% | 1003.6 hPa | - | - | - | - |
| 1787558902 | 12.22° C | 60% | 1003.2 hPa | - | - | - | - |
| 1787558002 | 12.22° C | 60% | 1002.9 hPa | - | - | - | - |
| 1787557102 | 12.78° C | 60% | 1003 hPa | - | - | - | - |
| 1787556202 | 12.78° C | 59% | 1003.1 hPa | - | - | - | - |
| 1787555302 | 12.78° C | 60% | 1003.5 hPa | - | - | - | - |
| 1787554402 | 12.78° C | 59% | 1003.7 hPa | - | - | - | - |
| 1787553502 | 13.33° C | 59% | 1003.6 hPa | - | - | - | - |
| 1787552602 | 13.33° C | 59% | 1003.9 hPa | - | - | - | - |
| 1787551702 | 13.33° C | 59% | 1003.7 hPa | - | - | - | - |
| 1787550802 | 13.89° C | 59% | 1003.8 hPa | - | - | - | - |
| 1787549902 | 13.89° C | 59% | 1004 hPa | - | - | - | - |
| 1787549002 | 14.44° C | 59% | 1004 hPa | - | - | - | - |
| 1787548101 | 14.44° C | 59% | 1003.7 hPa | - | - | - | - |
| 1787547201 | 15° C | 59% | 1003.7 hPa | - | - | - | - |
| 1787546304 | 15° C | 58% | 1003.8 hPa | - | - | - | - |
| 1787545404 | 15.56° C | 58% | 1003.9 hPa | - | - | - | - |
| 1787544504 | 16.11° C | 58% | 1003.9 hPa | - | - | - | - |
| 1787543603 | 16.11° C | 57% | 1004 hPa | - | - | - | - |
| 1787542703 | 16.67° C | 57% | 1004.2 hPa | - | - | - | - |
| 1787541803 | 17.78° C | 59% | 1004.1 hPa | - | - | - | - |
| 1787540903 | 18.33° C | 58% | 1004.2 hPa | - | - | - | - |
| 1787540003 | 18.89° C | 56% | 1004.3 hPa | - | - | - | - |
| 1787539103 | 20° C | 55% | 1004.5 hPa | - | - | - | - |
* Rain since midnight (hover to see other rain measurements)
** Current wind speed in m/s (hover to see current wind gust speed)